Flight Track Log - Related Links

Times and Time Zones

All times are in EDT time to prevent confusion due to time zone crossing. See the FLG3862 flight status page for this flight to view local times or setup timezone preferences in your user account.

Time Position Orientation Groundspeed Altitude Reporting Facility
EDT Latitude Longitude Course Direction KTS MPH feet Rate Location/Type
Sun 10:26:49 AM 42.2036 -83.3556 56° Northeast 161 185 1,200  Level Cleveland Center
Sun 10:27:57 AM 42.1514 -83.3617 185° South 188 216 3,800 2,140 Climbing Cleveland Center
Sun 10:28:58 AM 42.0956 -83.3394 164° South 246 283 5,800 2,529 Climbing Cleveland Center
Sun 10:29:00 AM 42.2853 -82.9069 75° East  Level FlightAware Approximate
Sun 10:29:58 AM 42.0706 -83.2517 111° Southeast 268 308 8,900  Level Cleveland Center
Sun 10:30:00 AM 42.3148 -82.7593 75° East  Level FlightAware Approximate
Sun 10:30:57 AM 42.1000 -83.1550 68° East 298 343 11,000  Level Cleveland Center
Sun 10:31:00 AM 42.3309 -82.6080 82° East  Level FlightAware Approximate
Sun 10:31:57 AM 42.1419 -83.0503 62° Northeast 316 364 12,500  Level Cleveland Center
Sun 10:32:00 AM 42.3601 -82.4632 56° Northeast  Level FlightAware Approximate
Sun 10:32:57 AM 42.1881 -82.9344 62° Northeast 329 379 14,100  Level Cleveland Center
Sun 10:33:57 AM 42.2322 -82.8125 64° Northeast 341 392 15,700 1,600 Climbing Cleveland Center
Sun 10:34:57 AM 42.2783 -82.6908 63° Northeast 346 398 17,300 1,450 Climbing Cleveland Center
Sun 10:35:57 AM 42.3242 -82.5686 63° Northeast 357 411 18,600 1,200 Climbing Cleveland Center
Sun 10:36:57 AM 42.3661 -82.4350 67° East 364 419 19,700 1,000 Climbing Cleveland Center
Sun 10:37:57 AM 42.3600 -82.2858 93° East 370 426 20,600 900 Climbing Cleveland Center
Sun 10:38:57 AM 42.3539 -82.1369 93° East 380 437 21,500 900 Climbing Cleveland Center
Sun 10:39:57 AM 42.3494 -81.9992 92° East 402 463 22,400 900 Climbing Cleveland Center
Sun 10:40:57 AM 42.3408 -81.8275 94° East 410 472 23,300 900 Climbing Cleveland Center
Sun 10:41:57 AM 42.3342 -81.6731 93° East 410 472 24,200 850 Climbing Cleveland Center
Sun 10:42:57 AM 42.3250 -81.5156 94° East 410 472 25,000 750 Climbing Cleveland Center
Sun 10:43:57 AM 42.3181 -81.3553 93° East 415 478 25,700 750 Climbing Cleveland Center
Sun 10:44:57 AM 42.3106 -81.1953 94° East 429 494 26,500 750 Climbing Cleveland Center
Sun 10:45:57 AM 42.3031 -81.0294 93° East 436 502 27,200 700 Climbing Cleveland Center
Sun 10:46:57 AM 42.2953 -80.8639 94° East 441 507 27,900 700 Climbing Cleveland Center
Sun 10:47:57 AM 42.2850 -80.6953 95° East 441 507 28,600 550 Climbing Cleveland Center
Sun 10:48:57 AM 42.2789 -80.5494 93° East 441 507 29,000 200 Climbing Cleveland Center
Sun 10:49:57 AM 42.3017 -80.3839 79° East 441 507 29,000  Level Cleveland Center
Sun 10:50:57 AM 42.3408 -80.2153 73° East 460 529 29,000  Level Cleveland Center
Sun 10:51:57 AM 42.3778 -80.0436 74° East 466 536 29,000  Level Cleveland Center
Sun 10:52:57 AM 42.4164 -79.8717 73° East 466 536 29,000  Level Cleveland Center
Sun 10:53:57 AM 42.4547 -79.6967 73° East 471 542 29,000  Level Cleveland Center
Sun 10:54:57 AM 42.4928 -79.5272 73° East 471 542 29,000  Level Cleveland Center
Sun 10:55:57 AM 42.5328 -79.3519 73° East 476 548 29,000  Level Cleveland Center
Sun 10:56:57 AM 42.5894 -79.1872 65° Northeast 482 555 29,000  Level Cleveland Center
Sun 10:57:57 AM 42.6497 -79.0222 64° Northeast 482 555 29,000  Level Cleveland Center
Sun 10:58:57 AM 42.7119 -78.8594 62° Northeast 482 555 29,000  Level Cleveland Center
Sun 10:59:57 AM 42.7742 -78.6939 63° Northeast 487 560 29,000  Level Cleveland Center
Sun 11:00:57 AM 42.8358 -78.5247 64° Northeast 487 560 29,000  Level Cleveland Center
Sun 11:01:57 AM 42.8953 -78.3614 64° Northeast 487 560 29,000  Level Cleveland Center
Sun 11:02:57 AM 42.9567 -78.1947 63° Northeast 487 560 29,000  Level Cleveland Center
Sun 11:03:58 AM 43.0178 -78.0303 63° Northeast 487 560 29,000  Level Cleveland Center
Sun 11:04:57 AM 43.0783 -77.8603 64° Northeast 487 560 29,000  Level Cleveland Center
Sun 11:05:57 AM 43.1369 -77.6925 64° Northeast 492 566 29,000  Level Cleveland Center
Sun 11:06:57 AM 43.1972 -77.5244 64° Northeast 487 560 29,000  Level Cleveland Center
Sun 11:07:57 AM 43.2553 -77.3592 64° Northeast 487 560 29,000  Level Cleveland Center
Sun 11:10:00 AM 43.3733 -77.0253 64° Northeast 467 537 29,000  Level Boston Center
Sun 11:11:00 AM 43.4300 -76.8581 65° Northeast 474 545 29,000  Level Boston Center
Sun 11:12:00 AM 43.4861 -76.6989 64° Northeast 474 545 29,000  Level Boston Center
Sun 11:13:00 AM 43.5511 -76.5142 64° Northeast 474 545 29,000  Level Boston Center
Sun 11:14:00 AM 43.6069 -76.3517 65° Northeast 474 545 29,000  Level Boston Center
Sun 11:15:00 AM 43.6647 -76.1831 65° Northeast 474 545 29,000  Level Boston Center
Sun 11:16:00 AM 43.7200 -76.0169 65° Northeast 474 545 29,000  Level Boston Center
Sun 11:17:00 AM 43.7681 -75.8731 65° Northeast 469 540 29,000  Level Boston Center
Sun 11:18:00 AM 43.8231 -75.7036 66° East 469 540 29,000 -250 Level Boston Center
Sun 11:19:00 AM 43.8778 -75.5394 65° Northeast 474 545 28,500 -800 Descending Boston Center
Sun 11:20:00 AM 43.9344 -75.3694 65° Northeast 474 545 27,400 -1,050 Descending Boston Center
Sun 11:21:00 AM 43.9864 -75.2075 66° East 474 545 26,400 -1,000 Descending Boston Center
Sun 11:22:00 AM 44.0381 -75.0481 66° East 468 539 25,400 -1,000 Descending Boston Center
Sun 11:23:00 AM 44.0872 -74.8883 67° East 450 518 24,400 -1,000 Descending Boston Center
Sun 11:24:00 AM 44.1386 -74.7314 65° Northeast 450 518 23,400 -1,000 Descending Boston Center
Sun 11:25:00 AM 44.1853 -74.5767 67° East 439 505 22,400 -909 Descending Boston Center
Sun 11:26:12 AM 44.2339 -74.4247 66° East 434 499 21,400 -1,682 Descending Boston Center
Sun 11:27:12 AM 44.2886 -74.2556 66° East 411 473 18,700 -2,350 Descending Boston Center
Sun 11:28:12 AM 44.3158 -74.1056 76° East 382 440 16,700 -2,250 Descending Boston Center
Sun 11:29:12 AM 44.3386 -73.9669 77° East 369 425 14,200 -2,500 Descending Boston Center
Sun 11:30:12 AM 44.3633 -73.8339 75° East 363 418 11,700 -1,600 Descending Boston Center
Sun 11:31:12 AM 44.3792 -73.7269 78° East 334 384 11,000 -550 Descending Boston Center
Sun 11:32:12 AM 44.4053 -73.6286 70° East 284 327 10,600 -1,500 Descending Boston Center
Sun 11:33:12 AM 44.4786 -73.5778 26° Northeast 248 285 8,000 -2,550 Descending Boston Center
Sun 11:34:12 AM 44.5272 -73.5117 44° Northeast 243 280 5,500 -2,250 Descending Boston Center
Sun 11:35:12 AM 44.5425 -73.4217 77° East 234 269 3,500 -1,450 Descending Boston Center
Sun 11:36:12 AM 44.5494 -73.3489 82° East 216 249 2,600 -700 Descending Boston Center
Sun 11:37:12 AM 44.5394 -73.2789 101° East 186 214 2,100 -500 Descending Boston Center

Login

Don't have an account? Register now (free) for customized features, flight alerts, and more!